SP6PGH-13 Weather Reports


time (UTC)temp
F
wind
direction
speed
knots
gust
knots
rain 1hr
in
rain 24hr
in
rain mn
in
humidity
%
barometer
mb
20260506224432 56 264 0.0 2.6 0.14 0.00 0.00 95 993.2
20260506222930 56 282 0.0 1.7 0.10 0.00 0.00 95 992.9
20260506221429 57 358 0.0 2.6 0.10 0.00 0.00 95 992.6
20260506215928 57 354 0.0 3.5 0.03 0.00 0.00 95 992.7
20260506214428 57 156 0.0 1.7 0.03 0.00 0.00 95 992.2
20260506212926 57 288 0.0 0.0 0.01 0.00 0.00 95 993.0
20260506211425 57 270 0.0 0.0 0.05 0.00 0.00 95 993.1
20260506205924 57 268 0.0 1.7 0.10 0.00 0.00 94 993.0
20260506204423 57 108 0.0 1.7 0.14 0.00 0.00 95 993.0
20260506202922 57 354 0.0 0.0 0.14 0.00 0.00 94 992.7
20260506201421 57 258 1.7 5.2 0.11 0.00 0.00 94 992.9
20260506195921 57 294 1.7 4.3 0.06 0.00 0.00 94 993.1
20260506194419 57 267 0.0 1.7 0.05 0.00 0.00 94 992.8
20260506192919 58 282 0.0 0.0 0.10 0.00 0.00 94 992.4
20260506185916 58 192 0.0 0.0 0.17 0.00 0.00 92 992.7
20260506184415 58 180 0.0 0.0 0.16 0.00 0.00 91 992.8
20260506182914 58 192 0.0 1.7 0.11 0.00 0.00 89 992.9
20260506181413 59 122 0.0 0.0 0.07 0.00 0.00 90 992.2
20260506175912 59 186 0.0 0.9 0.02 0.00 0.00 89 991.9
20260506174411 60 186 0.0 1.7 0.05 0.00 0.00 89 991.6
20260506172910 60 109 0.9 2.6 0.09 0.00 0.00 88 991.1
20260506171409 60 102 0.9 2.6 0.08 0.00 0.00 84 991.1
20260506165907 62 94 1.7 8.7 0.04 0.00 0.00 79 991.6
20260506164407 71 183 0.9 2.6 0.00 0.00 0.00 48 991.1
20260506162905 72 298 0.9 3.5 0.00 0.00 0.00 42 990.8
20260506161404 73 274 1.7 4.3 0.00 0.00 0.00 40 990.9
20260506155904 73 274 1.7 4.3 0.00 0.00 0.00 40 990.9
20260506154403 75 278 2.6 5.2 0.00 0.00 0.00 39 990.9
20260506152902 76 258 1.7 5.2 0.00 0.00 0.00 37 990.8
20260506151401 77 264 1.7 4.3 0.00 0.00 0.00 38 991.1
20260506145900 76 276 2.6 5.2 0.00 0.00 0.00 38 991.2
20260506142858 74 270 3.5 6.1 0.00 0.00 0.00 40 991.4
20260506141357 74 270 3.5 9.6 0.00 0.00 0.00 43 991.6
20260506135856 74 307 2.6 8.7 0.00 0.00 0.00 43 991.8
20260506134355 73 260 2.6 6.1 0.00 0.00 0.00 46 991.8
20260506132854 73 264 4.3 8.7 0.00 0.00 0.00 45 991.7
20260506131353 74 246 2.6 8.7 0.00 0.00 0.00 44 991.9
20260506125852 72 276 1.7 5.2 0.00 0.00 0.00 47 991.9
20260506124351 73 96 2.6 5.2 0.00 0.00 0.00 46 992.0
20260506122850 73 288 2.6 6.1 0.00 0.00 0.00 46 992.0
20260506121349 72 121 1.7 4.3 0.00 0.00 0.00 50 991.9
20260506115848 71 234 1.7 6.1 0.00 0.00 0.00 48 992.0
20260506114347 70 300 2.6 6.1 0.00 0.00 0.00 51 992.1
20260506112846 70 246 2.6 7.8 0.00 0.00 0.00 52 992.1
20260506111344 71 40 2.6 5.2 0.00 0.00 0.00 49 992.0
20260506105843 71 330 2.6 6.1 0.00 0.00 0.00 51 992.1
20260506104342 70 6 2.6 5.2 0.00 0.00 0.00 52 992.0
20260506102841 72 283 3.5 5.2 0.00 0.00 0.00 47 991.9
20260506101340 70 273 1.7 8.7 0.00 0.00 0.00 51 992.1
20260506095840 68 294 1.7 3.5 0.00 0.00 0.00 57 992.0
20260506094338 69 310 2.6 5.2 0.00 0.00 0.00 54 992.0
20260506092837 68 200 1.7 5.2 0.00 0.00 0.00 56 991.9
20260506091336 66 138 1.7 4.3 0.00 0.00 0.00 58 992.0
20260506085835 66 271 1.7 5.2 0.00 0.00 0.00 58 992.0
20260506084334 66 290 2.6 6.1 0.00 0.00 0.00 59 991.8
20260506082833 65 222 1.7 4.3 0.00 0.00 0.00 61 991.8
20260506081332 66 184 1.7 4.3 0.00 0.00 0.00 61 991.9
20260506072829 65 293 1.7 5.2 0.00 0.00 0.00 62 991.6
20260506071328 64 264 1.7 4.3 0.00 0.00 0.00 64 991.4
20260506061323 58 300 0.0 3.5 0.00 0.00 0.00 75 991.5
20260506051319 55 276 0.9 3.5 0.00 0.00 0.00 77 991.1
20260506044317 54 270 0.0 0.9 0.00 0.00 0.00 83 991.0
20260506042816 53 309 0.9 2.6 0.00 0.00 0.00 84 990.8
20260506041315 51 263 0.0 1.7 0.00 0.00 0.00 87 990.8
20260506035814 51 245 0.0 0.0 0.00 0.00 0.00 88 990.6
20260506034313 51 268 0.0 0.0 0.00 0.00 0.00 86 990.2
20260506032812 49 269 0.0 0.0 0.00 0.00 0.00 90 990.1
20260506025927 49 276 0.0 0.0 0.00 0.00 0.00 88 990.4
20260506024426 50 282 0.9 2.6 0.00 0.00 0.00 87 990.6
20260506022925 50 270 0.0 0.0 0.00 0.00 0.00 87 990.8
20260506021424 50 276 0.0 0.0 0.00 0.00 0.00 85 990.7
20260506015922 49 258 0.0 0.0 0.00 0.00 0.00 87 990.9
20260506014422 50 270 0.0 1.7 0.00 0.00 0.00 85 990.8
20260506012920 51 282 0.0 0.0 0.00 0.00 0.00 83 990.8
20260506011419 51 270 0.0 0.0 0.00 0.00 0.00 84 990.7
20260506005918 50 264 0.0 0.0 0.00 0.00 0.00 85 990.9
20260506004417 51 269 0.0 1.7 0.00 0.00 0.00 83 990.9
20260506002916 50 270 0.0 1.7 0.00 0.00 0.00 83 990.6
20260506001415 51 276 0.0 1.7 0.00 0.00 0.00 82 990.6
20260505235915 52 270 0.0 1.7 0.00 0.00 0.00 78 990.7
20260505234413 53 264 0.0 0.0 0.00 0.00 0.00 77 990.6
20260505232911 54 263 0.0 0.0 0.00 0.00 0.00 75 990.7
20260505231410 55 270 0.0 0.0 0.00 0.00 0.00 73 990.6
20260505225910 56 282 0.0 1.7 0.00 0.00 0.00 72 990.9